[[{"header":{"parameterUnit":"m.s-1","parameterCategory":1,"la1":30.2991,"la2":30.254,"lo1":-89.0895,"lo2":-89.0444,"dy":0.0017,"dx":0.0017,"nx":28,"ny":28,"refTime":"2026-03-04T03:00:00:Z","depth":0,"parameterNumber":2,"parameterNumberName":"U-component_of_WINDS"},"data":[0,0,0,0,0,0,0,0,0,0,0,0,0,0,0,0,0,0,0,0,0,0,0,0,0,0,0,0,0,0,0,0,0,0,0,0,0,0,0,0,0,0,0,0,0,0,0,0,0,0,0,0,0,0,0,0,0,0,-3.9661,-3.9662,0,-3.9787,-3.9789,-3.979,-3.9773,-3.9771,-3.9769,-3.9767,-3.9897,-3.9903,-3.9908,0,0,0,0,0,0,0,0,0,0,0,0,0,-3.9407,-3.9412,-3.9661,-3.9662,-3.9664,-3.9787,-3.9789,-3.979,-3.9774,-3.9771,-3.9769,-3.9766,-3.9896,-3.9902,-3.9908,0,0,0,0,0,0,0,0,0,0,0,0,0,-3.9524,-3.9413,-3.966,-3.967,-3.9673,-3.9787,-3.9789,-3.9791,-3.9774,-3.9771,-3.9768,-3.9765,-3.9893,-3.9901,-3.9909,-4.0022,0,0,-3.9934,-3.9938,0,0,0,0,0,0,0,0,-3.9517,-3.9533,-3.9667,-3.967,-3.9672,-3.9761,-3.9747,-3.9868,-3.9775,-3.9736,-3.9767,-3.9764,-3.9855,-3.9866,-3.9896,-4.0028,-4.0034,-3.9935,-3.994,-3.9943,-3.9946,0,0,0,0,0,0,0,-3.9509,-3.9528,-3.9711,-3.9669,-3.9673,-3.9669,-3.9682,-3.977,-3.9811,-3.9739,-3.9738,-3.9753,-3.9855,-3.9889,-3.9899,-4.0035,-3.9935,-3.9942,-3.9947,-3.995,-4.0267,-4.0271,0,0,0,0,0,0,-3.9498,-3.9521,-3.9707,-3.9715,-3.9586,-3.9676,-3.9691,-3.9736,-3.981,-3.9818,-3.9756,-3.9752,-3.9876,-3.989,-3.9904,-4.004,-3.9943,-3.9951,-3.9955,-4.0264,-4.0268,-4.0272,0,0,0,0,0,0,-3.9493,-3.9515,-3.9702,-3.9618,-3.9641,-3.9684,-3.9735,-3.974,-3.9773,-3.9823,-3.983,-3.9782,-3.9874,-3.9892,-3.9993,-4.0045,-3.9954,-3.9962,-4.026,-4.0265,-4.027,-4.0314,0,0,0,0,0,0,-3.9486,-3.9513,-3.9555,-3.9619,-3.9646,-3.9788,-3.9738,-3.9745,-3.9787,-3.9783,-3.9849,-3.9857,-3.9873,-3.9981,-4.0001,-4.0054,-3.9968,-4.0255,-4.0262,-4.0268,-4.0308,-4.032,-4.0331,0,0,0,0,0,-3.9477,-3.9563,-3.9558,-3.958,-3.9699,-3.9791,-3.9806,-3.9823,-3.9791,-3.9835,-3.9867,-3.9855,-4.0037,-3.9991,-4.0014,-4.007,-4.0252,-4.026,-4.0268,-4.0303,-4.0318,-4.0331,0,0,0,0,0,0,-3.9504,-3.9571,-3.9566,-3.9675,-3.9728,-3.9788,-3.9842,-3.9838,-3.99,-3.9894,-3.9913,-3.9928,-4.0029,-4.006,-4.0009,-4.0184,-4.014,-4.0153,-4.0159,-4.0174,-4.0185,-4.0174,-3.9975,0,0,0,0,0,-3.9523,-3.9591,-3.9646,-3.9737,-3.9764,-3.9799,-3.9839,-3.9848,-3.9903,-3.9925,-3.9964,-4.0019,-4.0088,-4.0133,-4.02,-4.0314,-4.0328,-4.0364,-4.0376,-4.0385,-4.0394,-4.0458,-4.0474,-4.0298,-4.0298,-4.0298,0,0,-3.9562,-3.9607,-3.9649,-3.9744,-3.9785,-3.9856,-3.9817,-3.9893,-3.9946,-3.9937,-4.0033,-4.0065,-4.0127,-4.0235,-4.0285,-4.0264,-4.0447,-4.0395,-4.0402,-4.0407,-4.0468,-4.0484,-4.0499,-4.0304,-4.0303,-4.0302,0,0,-3.9669,-3.971,-3.979,-3.9833,-3.9897,-3.992,-3.994,-4.0002,-4.0022,-4.012,-4.0115,-4.0179,-4.0298,-4.0342,-4.038,-4.0508,-4.0499,-4.053,-4.0587,-4.0649,-4.0663,-4.0675,-4.072,-4.0736,-4.054,-4.054,-4.054,0,-3.9709,-3.9814,-3.9832,-3.9909,-3.9952,-3.9948,-4.0029,-4.0071,-4.0153,-4.0182,-4.0159,-4.0309,-4.035,-4.0469,-4.05,-4.0532,-4.0555,-4.052,-4.0659,-4.0672,-4.0684,-4.0726,-4.0743,-4.0543,-4.0543,-4.0543,-4.0542,0,-3.986,-3.9934,-3.9992,-4.0071,-4.0121,-4.02,-4.0231,-4.0279,-4.0285,-4.0311,-4.0412,-4.0462,-4.0539,-4.0568,-4.0574,-4.0689,-4.0674,-4.0655,-4.061,-4.0703,-4.0744,-4.076,-4.0548,-4.0547,-4.0546,-4.0545,0,0,-3.9984,-4.0075,-4.0095,-4.0132,-4.0204,-4.0261,-4.0342,-4.0417,-4.0458,-4.0516,-4.0584,-4.0686,-4.067,-4.0713,-4.0725,-4.0779,-4.0877,-4.0754,-4.0755,-4.0773,-4.1006,-4.1017,-4.1036,-4.0873,-4.0876,-4.0879,-4.1,0,-4.0096,-4.0237,-4.0257,-4.0381,-4.045,-4.0449,-4.0519,-4.0571,-4.0599,-4.0662,-4.0693,-4.0765,-4.0738,-4.0765,-4.0819,-4.0853,-4.0923,-4.0845,-4.0936,-4.0938,-4.0917,-4.1057,-4.107,-4.1181,-4.1016,-4.1019,-4.1021,0,-4.0245,-4.0307,-4.0438,-4.0502,-4.0532,-4.0594,-4.0666,-4.0726,-4.0786,-4.0803,-4.0853,-4.0859,-4.0943,-4.0899,-4.1015,-4.0962,-4.1001,-4.1024,-4.1029,-4.1035,-4.0983,-4.1066,-4.1217,-4.1233,-4.1046,-4.1044,-4.1042,0,-4.032,-4.0437,-4.0531,-4.0563,-4.064,-4.0684,-4.0718,-4.0775,-4.082,-4.0884,-4.0913,-4.0986,-4.1025,-4.1082,-4.1108,-4.1073,-4.1223,-4.118,-4.1239,-4.1238,-4.1267,-4.1264,-4.1425,-4.1297,-4.1297,-4.1296,-4.1296,0,-4.0441,-4.0521,-4.0566,-4.0623,-4.0713,-4.0737,-4.0826,-4.0859,-4.0911,-4.0975,-4.0981,-4.1041,-4.1073,-4.1139,-4.116,-4.1253,-4.1272,-4.1287,-4.1291,-4.1285,-4.1283,-4.1309,-4.1301,-4.1301,-4.13,-4.1299,-4.1298,0,-4.0538,-4.0571,-4.0673,-4.0739,-4.0758,-4.0821,-4.0878,-4.0934,-4.0963,-4.1045,-4.1066,-4.1111,-4.1189,-4.1222,-4.1318,-4.1332,-4.1439,-4.1438,-4.1418,-4.1419,-4.1475,-4.1468,-4.1655,-4.168,-4.1538,-4.1539,-4.154,0,-4.0612,-4.0673,-4.0746,-4.079,-4.0826,-4.0896,-4.0942,-4.097,-4.1017,-4.1092,-4.114,-4.1218,-4.1282,-4.1407,-4.1449,-4.1523,-4.1523,-4.1584,-4.1534,-4.1526,-4.1522,-4.1517,-4.1523,-4.1591,-4.1593,-4.1594,-4.1595,0,-4.0739,-4.0753,-4.0819,-4.0892,-4.0947,-4.1005,-4.1062,-4.1098,-4.1134,-4.1188,-4.1268,-4.1318,-4.1417,-4.1494,-4.1571,-4.1608,-4.1608,-4.1611,-4.1628,-4.1621,-4.1606,-4.1613,-4.144,-4.1606,-4.1604,-4.1604,-4.1603,-4.1603,-4.0825,-4.088,-4.094,-4.1014,-4.1061,-4.1115,-4.1171,-4.1208,-4.1275,-4.1357,-4.137,-4.1456,-4.1517,-4.162,-4.166,-4.1728,-4.1713,-4.1738,-4.1744,-4.1749,-4.1752,-4.1598,-4.1743,-4.1742,-4.1742,-4.1742,-4.1742,0,-4.0951,-4.0991,-4.1059,-4.1139,-4.1197,-4.1194,-4.1258,-4.1307,-4.1382,-4.1439,-4.1502,-4.1595,-4.1671,-4.1721,-4.1798,-4.1843,-4.1845,-4.1862,-4.1858,-4.1866,-4.1762,-4.1738,-4.1859,-4.1859,-4.1859,-4.1859,-4.1859,-4.1859,-4.1023,-4.1116,-4.1138,-4.1254,-4.1293,-4.1377,-4.1414,-4.1464,-4.151,-4.1613,-4.1676,-4.1708,-4.1763,-4.1845,-4.1915,-4.1928,-4.1955,-4.1973,-4.1985,-4.1886,-4.1873,-4.1861,-4.1839,-4.198,-4.198,-4.2083,-4.2084,-4.2085]},{"header":{"parameterUnit":"m.s-1","parameterCategory":1,"la1":30.2991,"la2":30.254,"lo1":-89.0895,"lo2":-89.0444,"dy":0.0017,"dx":0.0017,"nx":28,"ny":28,"refTime":"2026-03-04T03:00:00:Z","depth":0,"parameterNumber":3,"parameterNumberName":"V-component_of_WINDS"},"data":[0,0,0,0,0,0,0,0,0,0,0,0,0,0,0,0,0,0,0,0,0,0,0,0,0,0,0,0,0,0,0,0,0,0,0,0,0,0,0,0,0,0,0,0,0,0,0,0,0,0,0,0,0,0,0,0,0,0,1.0018,1.0019,0,1.0074,1.0074,1.0075,1.0094,1.0094,1.0093,1.0093,1.0147,1.0148,1.015,0,0,0,0,0,0,0,0,0,0,0,0,0,0.9929,0.993,1.0018,1.0019,1.002,1.0073,1.0074,1.0075,1.0094,1.0094,1.0093,1.0093,1.0146,1.0148,1.015,0,0,0,0,0,0,0,0,0,0,0,0,0,0.9974,0.9931,1.0018,1.0036,1.0038,1.0073,1.0074,1.0075,1.0094,1.0094,1.0093,1.0093,1.0146,1.0148,1.0151,1.0172,0,0,1.0158,1.0159,0,0,0,0,0,0,0,0,0.9972,0.9977,1.0033,1.0035,1.0037,1.0077,1.0062,1.0107,1.0094,1.0073,1.0093,1.0093,1.0124,1.0128,1.0139,1.0174,1.0176,1.0158,1.016,1.0161,1.0161,0,0,0,0,0,0,0,0.9968,0.9975,1.004,1.0033,1.0036,1.0041,1.0047,1.0071,1.0099,1.0074,1.0076,1.0082,1.0125,1.0136,1.014,1.0177,1.0158,1.016,1.0162,1.0163,1.0235,1.0235,0,0,0,0,0,0,0.9963,0.9972,1.0038,1.0042,1.0003,1.0043,1.0049,1.0064,1.0099,1.0104,1.0083,1.0083,1.0132,1.0137,1.0142,1.017,1.0161,1.0163,1.0164,1.0234,1.0235,1.0235,0,0,0,0,0,0,0.9961,0.9968,1.0036,1.0008,1.0017,1.0044,1.0061,1.0065,1.0077,1.0105,1.011,1.0089,1.0132,1.0139,1.0165,1.0173,1.0164,1.0166,1.0234,1.0235,1.0235,1.0226,0,0,0,0,0,0,0.9958,0.9967,0.9976,1.0008,1.0018,1.0058,1.0061,1.0067,1.0082,1.0083,1.0113,1.0117,1.0133,1.0161,1.0167,1.0176,1.0168,1.0233,1.0234,1.0235,1.0226,1.0227,1.0227,0,0,0,0,0,0.9955,0.997,0.9976,0.9984,1.0029,1.0058,1.0064,1.0082,1.0082,1.0091,1.0109,1.0116,1.0171,1.0164,1.0171,1.018,1.0233,1.0234,1.0235,1.0226,1.0227,1.0227,0,0,0,0,0,0,0.9936,0.9974,0.9981,1.0008,1.003,1.0062,1.0073,1.0082,1.0104,1.0104,1.0125,1.0132,1.0156,1.0171,1.0162,1.0203,1.0202,1.0205,1.0193,1.0194,1.0194,1.019,1.017,0,0,0,0,0,0.9936,0.9957,0.9989,1.0009,1.002,1.0045,1.0058,1.007,1.0094,1.0103,1.0123,1.0145,1.0167,1.0181,1.0203,1.0229,1.0236,1.0239,1.0239,1.0239,1.0241,1.0257,1.0259,1.0239,1.0239,1.0239,0,0,0.9934,0.9957,0.9969,1.0006,1.0024,1.0046,1.0052,1.0074,1.009,1.0106,1.0132,1.0148,1.0174,1.0201,1.0213,1.0213,1.0249,1.0241,1.0241,1.0242,1.0259,1.026,1.0262,1.024,1.0239,1.0239,0,0,0.9942,0.9961,0.9981,1.0,1.0029,1.0046,1.0051,1.0082,1.0094,1.0121,1.0134,1.0153,1.0191,1.0209,1.0224,1.0242,1.025,1.0248,1.0251,1.0266,1.0268,1.0269,1.0277,1.0279,1.025,1.025,1.025,0,0.9935,0.9969,0.9989,1.0012,1.0028,1.0045,1.0066,1.0083,1.0117,1.0128,1.0128,1.0177,1.0196,1.0228,1.0232,1.0243,1.025,1.0245,1.0266,1.0268,1.027,1.0277,1.0279,1.025,1.025,1.025,1.025,0,0.996,0.9984,0.9996,1.0031,1.0048,1.0069,1.0094,1.0109,1.012,1.0137,1.0166,1.0189,1.0217,1.0225,1.0236,1.0259,1.0259,1.0262,1.0262,1.0271,1.0278,1.0281,1.0249,1.0249,1.0249,1.025,0,0,0.9956,1.0004,1.0008,1.0025,1.006,1.0078,1.0101,1.0129,1.0143,1.0166,1.0186,1.0219,1.0223,1.0239,1.0252,1.0266,1.028,1.0268,1.0269,1.027,1.0309,1.0306,1.0309,1.0286,1.0287,1.0287,1.0307,0,0.9969,1.0011,1.0031,1.0064,1.0087,1.0105,1.0124,1.0148,1.0165,1.0186,1.0205,1.0228,1.0231,1.0242,1.0256,1.0275,1.0288,1.0274,1.0305,1.0305,1.0298,1.0313,1.0309,1.0327,1.031,1.031,1.0311,0,0.9989,1.0015,1.005,1.0084,1.0095,1.0112,1.0141,1.0161,1.0189,1.02,1.022,1.0233,1.0258,1.0256,1.0291,1.0281,1.0295,1.0307,1.0308,1.0311,1.0308,1.0317,1.0333,1.0335,1.0315,1.0315,1.0314,0,0.9984,1.0027,1.0054,1.0068,1.0108,1.0121,1.0138,1.0165,1.0182,1.0207,1.0218,1.0246,1.026,1.0281,1.0302,1.0299,1.0335,1.0335,1.0345,1.0345,1.0352,1.0351,1.037,1.036,1.036,1.036,1.036,0,0.9996,1.0017,1.0053,1.007,1.0094,1.0118,1.0142,1.016,1.0185,1.0206,1.0223,1.0242,1.0268,1.029,1.0306,1.0333,1.0339,1.035,1.0354,1.0348,1.0347,1.0357,1.0357,1.0361,1.0361,1.0361,1.0361,0,0.9993,1.0018,1.005,1.0086,1.0096,1.0113,1.0144,1.0161,1.018,1.0206,1.0214,1.0243,1.0271,1.0294,1.0329,1.034,1.0368,1.0373,1.0359,1.0362,1.0371,1.037,1.0398,1.0403,1.0389,1.0389,1.0389,0,0.9999,1.0017,1.0056,1.0072,1.0089,1.0114,1.0132,1.0157,1.0175,1.0209,1.0222,1.0251,1.0276,1.0319,1.0343,1.0371,1.0377,1.0385,1.0381,1.0375,1.0378,1.0376,1.0379,1.0385,1.0385,1.0385,1.0385,0,1.0008,1.002,1.0046,1.0077,1.0098,1.0123,1.0148,1.016,1.0189,1.0209,1.0238,1.0258,1.0295,1.0324,1.0355,1.0373,1.0384,1.0386,1.039,1.0385,1.0377,1.0382,1.0361,1.0385,1.0385,1.0385,1.0385,1.0385,1.001,1.0027,1.0058,1.0087,1.0109,1.0133,1.0152,1.0174,1.0199,1.0233,1.0246,1.0276,1.0305,1.0348,1.0366,1.039,1.0391,1.0397,1.0398,1.0399,1.0399,1.0373,1.0396,1.0396,1.0396,1.0396,1.0396,0,1.002,1.0042,1.0068,1.0104,1.0127,1.0138,1.0167,1.0185,1.0212,1.0239,1.0263,1.0298,1.0327,1.0354,1.0384,1.0399,1.0405,1.0406,1.0405,1.0409,1.0396,1.039,1.04,1.04,1.04,1.04,1.04,1.04,1.0028,1.0058,1.0074,1.0116,1.0137,1.0168,1.0184,1.0207,1.0228,1.0267,1.0291,1.031,1.0337,1.037,1.0397,1.0404,1.0415,1.0415,1.0423,1.041,1.041,1.0409,1.0403,1.0417,1.0417,1.0434,1.0435,1.0435]}]]